Time,TemperatureF,DewpointF,PressureIn,WindDirection,WindDirectionDegrees,WindSpeedMPH,WindSpeedGustMPH,Humidity,HourlyPrecipIn,Conditions,Clouds,dailyrainin,SolarRadiationWatts/m^2,SoftwareType,DateUTC
2013-01-02 00:00:00,39.7,32.7,29.98,NW,311,0.0,4.0,76,0.00,,,0.00,0.0,meteohub,2013-01-02 05:00:00,
2013-01-02 00:01:00,39.7,32.7,29.98,ENE,61,0.0,6.0,76,0.00,,,0.00,0.0,meteohub,2013-01-02 05:01:00,
2013-01-02 00:02:00,39.7,32.7,29.98,North,9,2.0,6.0,76,0.00,,,0.00,0.0,meteohub,2013-01-02 05:02:00,
2013-01-02 00:08:00,39.6,32.5,29.98,NE,55,0.0,6.0,76,0.00,,,0.00,0.0,meteohub,2013-01-02 05:08:00,
2013-01-02 00:13:00,39.6,32.5,29.98,NE,42,1.0,6.0,76,0.00,,,0.00,0.0,meteohub,2013-01-02 05:13:00,
2013-01-02 00:18:00,39.6,32.5,29.99,NNE,17,0.0,5.0,76,0.00,,,0.00,0.0,meteohub,2013-01-02 05:18:00,
2013-01-02 00:23:00,39.6,32.5,29.98,NNW,345,1.0,4.0,76,0.00,,,0.00,0.0,meteohub,2013-01-02 05:23:00,
2013-01-02 00:28:00,39.6,32.5,29.98,NNW,347,0.0,4.0,76,0.00,,,0.00,0.0,meteohub,2013-01-02 05:28:00,
2013-01-02 00:33:00,39.4,32.5,29.98,NNW,332,0.0,4.0,76,0.00,,,0.00,0.0,meteohub,2013-01-02 05:33:00,
2013-01-02 00:38:00,39.4,32.5,29.98,North,355,1.0,3.0,76,0.00,,,0.00,0.0,meteohub,2013-01-02 05:38:00,
2013-01-02 00:43:00,39.4,32.5,29.97,NW,321,0.0,5.0,76,0.00,,,0.00,0.0,meteohub,2013-01-02 05:43:00,
2013-01-02 00:48:00,39.4,32.5,29.97,NW,319,0.0,5.0,76,0.00,,,0.00,0.0,meteohub,2013-01-02 05:48:00,
2013-01-02 00:53:00,39.2,32.4,29.97,NNE,24,0.0,5.0,76,0.00,,,0.00,0.0,meteohub,2013-01-02 05:53:00,
2013-01-02 00:58:00,39.2,32.4,29.99,NNE,26,0.0,3.0,76,0.00,,,0.00,0.0,meteohub,2013-01-02 05:58:00,
2013-01-02 01:03:00,39.2,32.4,29.99,NNE,32,0.0,3.0,76,0.00,,,0.00,0.0,meteohub,2013-01-02 06:03:00,
2013-01-02 01:08:00,39.0,32.2,29.97,NNE,32,0.0,3.0,76,0.00,,,0.00,0.0,meteohub,2013-01-02 06:08:00,
2013-01-02 01:13:00,39.0,32.2,29.97,North,349,0.0,3.0,76,0.00,,,0.00,0.0,meteohub,2013-01-02 06:13:00,
2013-01-02 01:18:00,39.0,32.2,29.99,North,351,0.0,1.0,76,0.00,,,0.00,0.0,meteohub,2013-01-02 06:18:00,
2013-01-02 01:24:00,39.0,32.2,29.98,NE,55,1.0,2.0,76,0.00,,,0.00,0.0,meteohub,2013-01-02 06:24:00,
2013-01-02 01:29:00,38.8,31.6,29.99,ENE,69,0.0,6.0,75,0.00,,,0.00,0.0,meteohub,2013-01-02 06:29:00,
2013-01-02 01:34:00,38.8,31.6,29.99,North,355,0.0,7.0,75,0.00,,,0.00,0.0,meteohub,2013-01-02 06:34:00,
2013-01-02 01:39:00,38.8,31.6,29.99,North,355,0.0,7.0,75,0.00,,,0.00,0.0,meteohub,2013-01-02 06:39:00,
2013-01-02 01:44:00,38.8,31.6,29.99,North,355,0.0,5.0,75,0.00,,,0.00,0.0,meteohub,2013-01-02 06:44:00,
2013-01-02 01:49:00,38.8,32.0,29.99,North,355,0.0,5.0,76,0.00,,,0.00,0.0,meteohub,2013-01-02 06:49:00,
2013-01-02 01:54:00,38.7,31.8,29.99,North,355,0.0,5.0,76,0.00,,,0.00,0.0,meteohub,2013-01-02 06:54:00,
2013-01-02 01:59:00,38.7,31.8,29.99,NNW,346,0.0,2.0,76,0.00,,,0.00,0.0,meteohub,2013-01-02 06:59:00,
2013-01-02 02:04:00,38.7,31.8,29.99,NNE,22,0.0,3.0,76,0.00,,,0.00,0.0,meteohub,2013-01-02 07:04:00,
2013-01-02 02:09:00,38.7,32.0,30.00,NNE,21,0.0,3.0,77,0.00,,,0.00,0.0,meteohub,2013-01-02 07:09:00,
2013-01-02 02:14:00,38.7,31.8,30.00,ESE,106,0.0,3.0,76,0.00,,,0.00,0.0,meteohub,2013-01-02 07:14:00,
2013-01-02 02:19:00,38.7,31.5,30.00,ESE,106,0.0,4.0,75,0.00,,,0.00,0.0,meteohub,2013-01-02 07:19:00,
2013-01-02 02:25:00,38.5,31.3,29.99,ESE,107,0.0,4.0,75,0.00,,,0.00,0.0,meteohub,2013-01-02 07:25:00,
2013-01-02 02:30:00,38.5,31.3,29.99,ESE,108,0.0,4.0,75,0.00,,,0.00,0.0,meteohub,2013-01-02 07:30:00,
2013-01-02 02:35:00,38.5,30.9,29.99,East,86,0.0,1.0,74,0.00,,,0.00,0.0,meteohub,2013-01-02 07:35:00,
2013-01-02 02:40:00,38.3,30.7,29.99,East,82,0.0,1.0,74,0.00,,,0.00,0.0,meteohub,2013-01-02 07:40:00,
2013-01-02 02:45:00,38.3,30.7,30.00,East,82,0.0,4.0,74,0.00,,,0.00,0.0,meteohub,2013-01-02 07:45:00,
2013-01-02 02:50:00,38.1,30.6,30.00,East,82,0.0,2.0,74,0.00,,,0.00,0.0,meteohub,2013-01-02 07:50:00,
2013-01-02 02:55:00,38.1,30.2,30.00,NE,52,0.0,3.0,73,0.00,,,0.00,0.0,meteohub,2013-01-02 07:55:00,
2013-01-02 03:00:00,38.1,29.8,30.00,North,355,0.0,3.0,72,0.00,,,0.00,0.0,meteohub,2013-01-02 08:00:00,
2013-01-02 03:05:00,38.1,29.5,30.00,NNE,21,0.0,3.0,71,0.00,,,0.00,0.0,meteohub,2013-01-02 08:05:00,
2013-01-02 03:10:00,37.9,29.3,30.00,NNE,20,0.0,3.0,71,0.00,,,0.00,0.0,meteohub,2013-01-02 08:10:00,
2013-01-02 03:15:00,37.9,29.3,29.99,NNE,20,0.0,3.0,71,0.00,,,0.00,0.0,meteohub,2013-01-02 08:15:00,
2013-01-02 03:20:00,37.9,29.7,30.00,NNE,20,0.0,2.0,72,0.00,,,0.00,0.0,meteohub,2013-01-02 08:20:00,
2013-01-02 03:25:00,37.9,29.7,30.00,NNE,20,0.0,1.0,72,0.00,,,0.00,0.0,meteohub,2013-01-02 08:25:00,
2013-01-02 03:30:00,37.9,29.7,30.00,NNE,19,0.0,1.0,72,0.00,,,0.00,0.0,meteohub,2013-01-02 08:30:00,
2013-01-02 03:36:00,37.9,29.7,29.99,NNE,19,0.0,1.0,72,0.00,,,0.00,0.0,meteohub,2013-01-02 08:36:00,
2013-01-02 03:41:00,37.8,29.5,29.99,NNE,20,0.0,1.0,72,0.00,,,0.00,0.0,meteohub,2013-01-02 08:41:00,
2013-01-02 03:46:00,37.8,29.5,29.99,NNE,19,0.0,1.0,72,0.00,,,0.00,0.0,meteohub,2013-01-02 08:46:00,
2013-01-02 03:51:00,37.8,29.8,29.99,NNE,19,0.0,1.0,73,0.00,,,0.00,0.0,meteohub,2013-01-02 08:51:00,
2013-01-02 03:56:00,37.8,29.8,29.99,NE,56,2.0,2.0,73,0.00,,,0.00,0.0,meteohub,2013-01-02 08:56:00,
2013-01-02 04:01:00,37.6,29.7,29.99,SE,133,0.0,4.0,73,0.00,,,0.00,0.0,meteohub,2013-01-02 09:01:00,
2013-01-02 04:06:00,37.6,29.7,29.99,SE,133,0.0,4.0,73,0.00,,,0.00,0.0,meteohub,2013-01-02 09:06:00,
2013-01-02 04:11:00,37.4,29.5,29.99,SE,132,0.0,4.0,73,0.00,,,0.00,0.0,meteohub,2013-01-02 09:11:00,
2013-01-02 04:16:00,37.2,29.3,29.99,SE,129,0.0,2.0,73,0.00,,,0.00,0.0,meteohub,2013-01-02 09:16:00,
2013-01-02 04:21:00,37.2,29.3,29.99,SE,129,0.0,2.0,73,0.00,,,0.00,0.0,meteohub,2013-01-02 09:21:00,
2013-01-02 04:26:00,37.0,29.1,29.99,SE,130,0.0,2.0,73,0.00,,,0.00,0.0,meteohub,2013-01-02 09:26:00,
2013-01-02 04:31:00,37.0,29.1,30.00,SE,128,0.0,1.0,73,0.00,,,0.00,0.0,meteohub,2013-01-02 09:31:00,
2013-01-02 04:36:00,37.0,29.1,30.01,SE,128,0.0,2.0,73,0.00,,,0.00,0.0,meteohub,2013-01-02 09:36:00,
2013-01-02 04:42:00,37.0,29.1,30.00,SE,128,0.0,2.0,73,0.00,,,0.00,0.0,meteohub,2013-01-02 09:42:00,
2013-01-02 04:47:00,36.9,28.9,30.00,SE,128,0.0,1.0,73,0.00,,,0.00,0.0,meteohub,2013-01-02 09:47:00,
2013-01-02 04:52:00,36.9,29.3,29.99,SE,128,0.0,2.0,74,0.00,,,0.00,0.0,meteohub,2013-01-02 09:52:00,
2013-01-02 04:57:00,36.9,28.9,30.00,SE,128,0.0,2.0,73,0.00,,,0.00,0.0,meteohub,2013-01-02 09:57:00,
2013-01-02 05:02:00,36.9,28.9,29.99,SE,128,0.0,2.0,73,0.00,,,0.00,0.0,meteohub,2013-01-02 10:02:00,
2013-01-02 05:07:00,36.9,28.9,29.99,SE,128,0.0,1.0,73,0.00,,,0.00,0.0,meteohub,2013-01-02 10:07:00,
2013-01-02 05:12:00,36.7,28.8,30.01,SE,128,0.0,1.0,73,0.00,,,0.00,0.0,meteohub,2013-01-02 10:12:00,
2013-01-02 05:17:00,36.7,28.8,30.01,SE,128,0.0,1.0,73,0.00,,,0.00,0.0,meteohub,2013-01-02 10:17:00,
2013-01-02 05:22:00,36.7,28.6,30.01,SE,128,0.0,4.0,72,0.00,,,0.00,0.0,meteohub,2013-01-02 10:22:00,
2013-01-02 05:27:00,36.7,28.6,30.01,SE,128,0.0,4.0,72,0.00,,,0.00,0.0,meteohub,2013-01-02 10:27:00,
2013-01-02 05:32:00,36.7,28.6,30.01,SE,128,0.0,4.0,72,0.00,,,0.00,0.0,meteohub,2013-01-02 10:32:00,
2013-01-02 05:37:00,36.5,29.7,30.01,SE,128,0.0,1.0,76,0.00,,,0.00,0.0,meteohub,2013-01-02 10:37:00,
2013-01-02 05:42:00,36.3,28.2,29.99,SE,126,0.0,1.0,72,0.00,,,0.00,0.0,meteohub,2013-01-02 10:42:00,
2013-01-02 05:48:00,36.3,27.9,30.01,East,99,0.0,2.0,71,0.00,,,0.00,0.0,meteohub,2013-01-02 10:48:00,
2013-01-02 05:53:00,36.3,27.9,30.01,ENE,57,0.0,2.0,71,0.00,,,0.00,0.0,meteohub,2013-01-02 10:53:00,
2013-01-02 05:58:00,36.1,27.7,30.01,ENE,57,0.0,3.0,71,0.00,,,0.00,0.0,meteohub,2013-01-02 10:58:00,
2013-01-02 06:03:00,36.1,27.7,30.02,NE,56,0.0,3.0,71,0.00,,,0.00,0.0,meteohub,2013-01-02 11:03:00,
2013-01-02 06:08:00,36.1,27.7,30.01,ENE,57,0.0,3.0,71,0.00,,,0.00,0.0,meteohub,2013-01-02 11:08:00,
2013-01-02 06:13:00,36.0,27.5,30.02,NE,36,0.0,2.0,71,0.00,,,0.00,0.0,meteohub,2013-01-02 11:13:00,
2013-01-02 06:18:00,36.0,27.5,30.02,NE,36,0.0,4.0,71,0.00,,,0.00,0.0,meteohub,2013-01-02 11:18:00,
2013-01-02 06:23:00,35.8,27.3,30.02,NNE,18,1.0,4.0,71,0.00,,,0.00,0.0,meteohub,2013-01-02 11:23:00,
2013-01-02 06:28:00,35.8,27.3,30.03,NNE,18,0.0,2.0,71,0.00,,,0.00,0.0,meteohub,2013-01-02 11:28:00,
2013-01-02 06:33:00,35.8,27.3,30.03,NNE,18,0.0,2.0,71,0.00,,,0.00,0.0,meteohub,2013-01-02 11:33:00,
2013-01-02 06:38:00,35.6,27.1,30.03,NNE,18,0.0,2.0,71,0.00,,,0.00,0.0,meteohub,2013-01-02 11:38:00,
2013-01-02 06:43:00,35.4,27.0,30.04,NNE,18,0.0,2.0,71,0.00,,,0.00,0.0,meteohub,2013-01-02 11:43:00,
2013-01-02 06:48:00,35.4,27.0,30.04,NNE,20,0.0,2.0,71,0.00,,,0.00,0.0,meteohub,2013-01-02 11:48:00,
2013-01-02 06:53:00,35.4,27.0,30.03,NNE,21,0.0,5.0,71,0.00,,,0.00,0.0,meteohub,2013-01-02 11:53:00,
2013-01-02 06:59:00,35.2,27.1,30.04,NNE,21,0.0,5.0,72,0.00,,,0.00,0.0,meteohub,2013-01-02 11:59:00,
2013-01-02 07:04:00,35.2,26.8,30.04,NNE,16,0.0,3.0,71,0.00,,,0.00,0.0,meteohub,2013-01-02 12:04:00,
2013-01-02 07:09:00,35.1,26.6,30.04,NE,42,0.0,3.0,71,0.00,,,0.00,0.0,meteohub,2013-01-02 12:09:00,
2013-01-02 07:14:00,35.1,26.6,30.05,NE,41,0.0,3.0,71,0.00,,,0.00,0.0,meteohub,2013-01-02 12:14:00,
2013-01-02 07:19:00,34.9,26.8,30.05,NE,42,0.0,2.0,72,0.00,,,0.00,0.0,meteohub,2013-01-02 12:19:00,
2013-01-02 07:24:00,34.7,26.6,30.06,NE,42,0.0,2.0,72,0.00,,,0.00,0.0,meteohub,2013-01-02 12:24:00,
2013-01-02 07:29:00,34.5,26.4,30.06,NE,42,0.0,1.0,72,0.00,,,0.00,0.0,meteohub,2013-01-02 12:29:00,
2013-01-02 07:34:00,34.3,26.6,30.06,NE,42,0.0,1.0,73,0.00,,,0.00,5.0,meteohub,2013-01-02 12:34:00,
2013-01-02 07:39:00,34.3,26.6,30.06,NE,41,0.0,1.0,73,0.00,,,0.00,9.0,meteohub,2013-01-02 12:39:00,
2013-01-02 07:44:00,34.3,26.6,30.07,NE,42,0.0,1.0,73,0.00,,,0.00,14.0,meteohub,2013-01-02 12:44:00,
2013-01-02 07:49:00,34.3,26.6,30.06,NNE,22,0.0,3.0,73,0.00,,,0.00,16.0,meteohub,2013-01-02 12:49:00,
2013-01-02 07:54:00,34.3,26.6,30.07,NNE,30,2.0,3.0,73,0.00,,,0.00,25.0,meteohub,2013-01-02 12:54:00,
2013-01-02 07:59:00,34.3,26.2,30.08,North,0,0.0,3.0,72,0.00,,,0.00,28.0,meteohub,2013-01-02 12:59:00,
2013-01-02 08:05:00,34.3,26.2,30.07,NNE,13,0.0,6.0,72,0.00,,,0.00,32.0,meteohub,2013-01-02 13:05:00,
2013-01-02 08:10:00,34.3,26.2,30.08,NNE,13,0.0,6.0,72,0.00,,,0.00,54.0,meteohub,2013-01-02 13:10:00,
2013-01-02 08:15:00,34.3,26.2,30.08,NNE,17,0.0,6.0,72,0.00,,,0.00,32.0,meteohub,2013-01-02 13:15:00,
2013-01-02 08:20:00,34.3,25.9,30.07,NE,39,0.0,5.0,71,0.00,,,0.00,40.0,meteohub,2013-01-02 13:20:00,
2013-01-02 08:25:00,34.3,25.9,30.08,NE,42,0.0,4.0,71,0.00,,,0.00,44.0,meteohub,2013-01-02 13:25:00,
2013-01-02 08:30:00,34.2,25.7,30.07,NNW,345,0.0,4.0,71,0.00,,,0.00,60.0,meteohub,2013-01-02 13:30:00,
2013-01-02 08:35:00,34.2,25.7,30.07,ENE,60,2.0,5.0,71,0.00,,,0.00,54.0,meteohub,2013-01-02 13:35:00,
2013-01-02 08:40:00,34.2,25.7,30.08,North,0,0.0,8.0,71,0.00,,,0.00,62.0,meteohub,2013-01-02 13:40:00,
2013-01-02 08:45:00,34.2,25.3,30.08,NE,43,0.0,8.0,70,0.00,,,0.00,144.0,meteohub,2013-01-02 13:45:00,
2013-01-02 08:50:00,34.3,25.5,30.08,NNW,341,2.0,7.0,70,0.00,,,0.00,155.0,meteohub,2013-01-02 13:50:00,
2013-01-02 08:55:00,34.3,25.5,30.09,NNW,339,0.0,5.0,70,0.00,,,0.00,134.0,meteohub,2013-01-02 13:55:00,
2013-01-02 09:00:00,34.3,25.5,30.09,North,350,0.0,5.0,70,0.00,,,0.00,220.0,meteohub,2013-01-02 14:00:00,
2013-01-02 09:05:00,34.3,25.5,30.09,ENE,70,2.0,5.0,70,0.00,,,0.00,207.0,meteohub,2013-01-02 14:05:00,
2013-01-02 09:10:00,34.3,25.2,30.09,NE,39,0.0,9.0,69,0.00,,,0.00,253.0,meteohub,2013-01-02 14:10:00,
2013-01-02 09:16:00,34.3,25.2,30.10,NNE,13,2.0,9.0,69,0.00,,,0.00,262.0,meteohub,2013-01-02 14:16:00,
2013-01-02 09:21:00,34.5,25.3,30.10,North,5,1.0,9.0,69,0.00,,,0.00,287.0,meteohub,2013-01-02 14:21:00,
2013-01-02 09:26:00,34.7,25.5,30.11,NNW,338,3.0,9.0,69,0.00,,,0.00,251.0,meteohub,2013-01-02 14:26:00,
2013-01-02 09:31:00,34.9,25.3,30.11,NNW,346,1.0,8.0,68,0.00,,,0.00,271.0,meteohub,2013-01-02 14:31:00,
2013-01-02 09:36:00,34.9,25.3,30.11,NNE,17,1.0,8.0,68,0.00,,,0.00,232.0,meteohub,2013-01-02 14:36:00,
2013-01-02 09:41:00,34.9,25.3,30.11,NNW,338,4.0,8.0,68,0.00,,,0.00,250.0,meteohub,2013-01-02 14:41:00,
2013-01-02 09:46:00,35.1,25.5,30.12,North,350,3.0,8.0,68,0.00,,,0.00,258.0,meteohub,2013-01-02 14:46:00,
2013-01-02 09:51:00,35.1,25.2,30.12,North,350,1.0,6.0,67,0.00,,,0.00,308.0,meteohub,2013-01-02 14:51:00,
2013-01-02 09:56:00,35.2,25.3,30.11,NW,322,3.0,9.0,67,0.00,,,0.00,255.0,meteohub,2013-01-02 14:56:00,